IGO6112 VISR-VIAR

Flight info

Callsign IGO6112
Flight time N/A
Altitude 23000
Route SUDAK W23 PKT/N0374F220 W23 KIKED
Aircraft A320/M-SDE3FGHIRWY/LB1

Departure

Time 2026-05-05 14:55
Airport Sheikh ul Alam International Airport (VISR)

Arrival

Time N/A
Airport Sri Guru Ram Das Ji International Airport (VIAR)
Time Latitude Longitude Altitude Speed Heading
2026-05-05 14:45 34.00106 74.76145 5462 ft 0 kts 40°
2026-05-05 14:50 34.00099 74.76137 5463 ft 2 kts 40°
2026-05-05 14:50 34.00086 74.76124 5462 ft 2 kts 40°
2026-05-05 14:50 34.00074 74.76112 5462 ft 2 kts 40°
2026-05-05 14:50 34.00062 74.76099 5464 ft 2 kts 41°
2026-05-05 14:51 34.00050 74.76085 5463 ft 2 kts 74°
2026-05-05 14:51 34.00052 74.76066 5465 ft 2 kts 130°
2026-05-05 14:51 34.00063 74.76055 5465 ft 0 kts 163°
2026-05-05 14:52 34.00059 74.76057 5465 ft 2 kts 163°
2026-05-05 14:52 34.00030 74.76063 5464 ft 6 kts 176°
2026-05-05 14:52 33.99998 74.76062 5462 ft 7 kts 183°
2026-05-05 14:53 33.99927 74.76049 5461 ft 8 kts 194°
2026-05-05 14:53 33.99870 74.76037 5461 ft 9 kts 159°
2026-05-05 14:53 33.99852 74.76054 5461 ft 0 kts 136°
2026-05-05 14:53 33.99849 74.76057 5461 ft 1 kts 136°
2026-05-05 14:54 33.99812 74.76100 5460 ft 28 kts 136°
2026-05-05 14:54 33.99498 74.76466 5463 ft 95 kts 136°
2026-05-05 14:54 33.98891 74.77171 5462 ft 144 kts 136°
2026-05-05 14:54 33.98065 74.78121 5514 ft 180 kts 136°
2026-05-05 14:55 33.97118 74.79218 5925 ft 198 kts 135°
2026-05-05 14:55 33.96131 74.80441 6535 ft 207 kts 133°
2026-05-05 14:55 33.95132 74.81707 7120 ft 214 kts 135°
2026-05-05 14:55 33.93905 74.82738 7761 ft 220 kts 161°
2026-05-05 14:56 33.92388 74.83048 8338 ft 223 kts 176°
2026-05-05 14:56 33.90832 74.83085 8860 ft 230 kts 180°
2026-05-05 14:56 33.89169 74.83076 9313 ft 244 kts 180°
2026-05-05 14:56 33.87457 74.83094 10026 ft 248 kts 179°
2026-05-05 14:57 33.85715 74.83153 10699 ft 252 kts 178°
2026-05-05 14:57 33.83948 74.83249 11383 ft 256 kts 177°
2026-05-05 14:57 33.82159 74.83372 12093 ft 259 kts 176°
2026-05-05 14:57 33.80350 74.83516 12800 ft 262 kts 176°
2026-05-05 14:58 33.78515 74.83672 13510 ft 266 kts 176°
2026-05-05 14:58 33.76659 74.83833 14193 ft 269 kts 176°
2026-05-05 14:58 33.74783 74.83997 14802 ft 272 kts 176°
2026-05-05 14:58 33.72877 74.84164 15423 ft 276 kts 177°
2026-05-05 14:59 33.70948 74.84331 16026 ft 280 kts 177°
2026-05-05 14:59 33.68989 74.84502 16622 ft 284 kts 177°
2026-05-05 14:59 33.67007 74.84678 17225 ft 287 kts 177°
2026-05-05 14:59 33.64999 74.84857 17817 ft 291 kts 177°
2026-05-05 15:00 33.62964 74.85036 18403 ft 295 kts 177°
2026-05-05 15:00 33.61600 74.85156 18746 ft 298 kts 178°
2026-05-05 15:00 33.58820 74.85472 19453 ft 303 kts 172°
2026-05-05 15:00 33.56741 74.85964 19999 ft 305 kts 170°
2026-05-05 15:01 33.54649 74.86476 20530 ft 309 kts 170°
2026-05-05 15:01 33.52535 74.86992 21038 ft 312 kts 170°
2026-05-05 15:01 33.51117 74.87336 21386 ft 314 kts 170°
2026-05-05 15:01 33.48965 74.87859 21888 ft 318 kts 170°
2026-05-05 15:02 33.46787 74.88389 22382 ft 320 kts 170°
2026-05-05 15:02 33.43842 74.89100 22991 ft 325 kts 170°
2026-05-05 15:02 33.41579 74.89643 23158 ft 341 kts 171°
2026-05-05 15:02 33.39189 74.90213 23174 ft 359 kts 170°
2026-05-05 15:03 33.37550 74.90664 23167 ft 372 kts 165°
2026-05-05 15:03 33.35055 74.91740 23164 ft 391 kts 156°
2026-05-05 15:03 33.32614 74.93321 23151 ft 408 kts 147°
2026-05-05 15:03 33.30175 74.95186 23147 ft 423 kts 148°
2026-05-05 15:04 33.27667 74.97089 23131 ft 429 kts 148°
2026-05-05 15:04 33.25140 74.98996 23127 ft 430 kts 148°
2026-05-05 15:04 33.22608 75.00900 23118 ft 431 kts 148°
2026-05-05 15:04 33.20068 75.02806 23114 ft 431 kts 148°
2026-05-05 15:05 33.14986 75.06620 23105 ft 432 kts 148°
2026-05-05 15:05 33.12436 75.08538 23096 ft 432 kts 148°
2026-05-05 15:05 33.09898 75.10457 23095 ft 432 kts 148°
2026-05-05 15:06 33.07360 75.12382 23078 ft 433 kts 148°
2026-05-05 15:06 33.04824 75.14310 23076 ft 432 kts 148°
2026-05-05 15:06 33.02290 75.16233 23067 ft 432 kts 148°
2026-05-05 15:06 32.99756 75.18151 23060 ft 432 kts 148°
2026-05-05 15:07 32.97222 75.20066 23062 ft 432 kts 148°
2026-05-05 15:07 32.94677 75.21985 23049 ft 432 kts 148°
2026-05-05 15:07 32.92137 75.23900 23046 ft 432 kts 148°
2026-05-05 15:07 32.89595 75.25815 23041 ft 432 kts 148°
2026-05-05 15:08 32.87055 75.27729 23040 ft 432 kts 148°
2026-05-05 15:08 32.84519 75.29641 23035 ft 432 kts 148°
2026-05-05 15:08 32.81982 75.31553 23033 ft 432 kts 148°
2026-05-05 15:08 32.79444 75.33463 23030 ft 432 kts 148°
2026-05-05 15:09 32.76936 75.35348 23022 ft 432 kts 148°
2026-05-05 15:09 32.74398 75.37253 23021 ft 432 kts 148°
2026-05-05 15:09 32.71860 75.39158 23013 ft 432 kts 148°
2026-05-05 15:09 32.69325 75.41063 23013 ft 432 kts 148°
2026-05-05 15:10 32.66785 75.42969 23011 ft 432 kts 148°
2026-05-05 15:10 32.64247 75.44870 23004 ft 431 kts 148°
2026-05-05 15:10 32.61706 75.46771 22996 ft 432 kts 148°
2026-05-05 15:10 32.59163 75.48667 22991 ft 432 kts 148°
2026-05-05 15:11 32.56506 75.50312 22988 ft 431 kts 158°
2026-05-05 15:11 32.53681 75.51497 22979 ft 431 kts 163°
2026-05-05 15:11 32.50836 75.52600 22967 ft 430 kts 163°
2026-05-05 15:11 32.47992 75.53707 22962 ft 430 kts 163°
2026-05-05 15:12 32.45153 75.54813 22955 ft 430 kts 163°
2026-05-05 15:12 32.42310 75.55923 22950 ft 430 kts 163°
2026-05-05 15:12 32.39475 75.57032 22943 ft 429 kts 162°
2026-05-05 15:12 32.36638 75.58141 22941 ft 429 kts 163°
2026-05-05 15:13 32.33807 75.59245 22938 ft 429 kts 163°
2026-05-05 15:13 32.30972 75.60348 22934 ft 429 kts 163°
2026-05-05 15:13 32.28140 75.61445 22930 ft 428 kts 163°
2026-05-05 15:13 32.25255 75.62296 22930 ft 427 kts 173°
2026-05-05 15:14 32.22307 75.62558 22919 ft 424 kts 183°
2026-05-05 15:14 32.19382 75.62228 22918 ft 421 kts 193°
2026-05-05 15:14 32.16555 75.61362 22919 ft 419 kts 199°
2026-05-05 15:14 32.13760 75.60365 22915 ft 419 kts 199°
2026-05-05 15:15 32.10967 75.59370 22908 ft 419 kts 199°
2026-05-05 15:15 32.08177 75.58381 22905 ft 419 kts 199°
2026-05-05 15:15 32.05380 75.57391 22906 ft 419 kts 199°
2026-05-05 15:15 32.02591 75.56403 22899 ft 419 kts 199°
2026-05-05 15:16 31.99805 75.55417 22898 ft 419 kts 199°
2026-05-05 15:16 31.97015 75.54428 22898 ft 418 kts 199°
2026-05-05 15:16 31.94242 75.53400 22893 ft 417 kts 204°
2026-05-05 15:16 31.91661 75.51878 22894 ft 413 kts 216°
2026-05-05 15:17 31.89424 75.49802 22894 ft 409 kts 227°
2026-05-05 15:17 31.87593 75.47257 22896 ft 405 kts 238°
2026-05-05 15:17 31.86235 75.44373 22895 ft 402 kts 250°
2026-05-05 15:17 31.85330 75.41277 22898 ft 400 kts 255°
2026-05-05 15:18 31.84497 75.38158 22893 ft 400 kts 255°
2026-05-05 15:18 31.83649 75.35039 22897 ft 400 kts 255°
2026-05-05 15:18 31.82791 75.31919 22892 ft 400 kts 255°
2026-05-05 15:18 31.82513 75.30909 22894 ft 401 kts 255°
2026-05-05 15:19 31.82439 75.30641 22892 ft 401 kts 255°
2026-05-05 15:19 31.81637 75.27703 22881 ft 400 kts 255°
2026-05-05 15:19 31.80784 75.24588 22895 ft 400 kts 255°
2026-05-05 15:19 31.79928 75.21471 22892 ft 400 kts 255°
2026-05-05 15:20 31.79073 75.18355 22895 ft 400 kts 255°
2026-05-05 15:20 31.78221 75.15244 22897 ft 401 kts 255°
2026-05-05 15:20 31.77365 75.12122 22895 ft 401 kts 255°
2026-05-05 15:20 31.76508 75.09010 22896 ft 401 kts 255°
2026-05-05 15:21 31.75652 75.05895 22897 ft 400 kts 255°
2026-05-05 15:21 31.74798 75.02782 22897 ft 400 kts 255°
2026-05-05 15:21 31.73944 74.99674 22903 ft 401 kts 255°
2026-05-05 15:21 31.73082 74.96538 22265 ft 407 kts 255°
2026-05-05 15:22 31.72208 74.93363 20760 ft 411 kts 255°
2026-05-05 15:22 31.71328 74.90182 19117 ft 418 kts 255°
2026-05-05 15:22 31.70422 74.86915 17433 ft 422 kts 255°
2026-05-05 15:22 31.69514 74.83656 15976 ft 418 kts 255°
2026-05-05 15:23 31.68584 74.80452 14661 ft 413 kts 250°
2026-05-05 15:23 31.67000 74.77662 13504 ft 413 kts 227°
2026-05-05 15:23 31.64626 74.75811 12244 ft 413 kts 204°
2026-05-05 15:23 31.61834 74.75186 11031 ft 410 kts 180°
2026-05-05 15:24 31.59068 74.75853 9858 ft 404 kts 160°
2026-05-05 15:24 31.56433 74.76892 8515 ft 397 kts 165°
2026-05-05 15:24 31.53807 74.77803 7295 ft 389 kts 162°
2026-05-05 15:24 31.51281 74.78827 6160 ft 380 kts 155°
2026-05-05 15:25 31.49225 74.80640 5181 ft 365 kts 129°
2026-05-05 15:25 31.48143 74.83220 4532 ft 344 kts 99°
2026-05-05 15:25 31.48271 74.85849 4409 ft 310 kts 70°
2026-05-05 15:25 31.49385 74.87864 4128 ft 288 kts 39°
2026-05-05 15:26 31.51123 74.88804 3775 ft 272 kts
2026-05-05 15:26 31.52936 74.88502 3465 ft 260 kts 339°
2026-05-05 15:26 31.54567 74.87681 3266 ft 253 kts 336°
2026-05-05 15:26 31.56161 74.86866 3116 ft 246 kts 337°
2026-05-05 15:27 31.57716 74.86111 3020 ft 237 kts 338°
2026-05-05 15:27 31.59217 74.85390 2869 ft 226 kts 339°
2026-05-05 15:27 31.60585 74.84732 2628 ft 198 kts 338°
2026-05-05 15:27 31.61781 74.84156 2382 ft 175 kts 339°
2026-05-05 15:28 31.62858 74.83637 2164 ft 160 kts 339°
2026-05-05 15:28 31.63862 74.83153 1974 ft 153 kts 339°
2026-05-05 15:28 31.64833 74.82685 1781 ft 150 kts 339°
2026-05-05 15:28 31.65800 74.82219 1592 ft 151 kts 339°
2026-05-05 15:29 31.66773 74.81751 1403 ft 151 kts 339°
2026-05-05 15:29 31.67745 74.81281 1172 ft 151 kts 339°
2026-05-05 15:29 31.68715 74.80809 989 ft 151 kts 339°
2026-05-05 15:29 31.69042 74.80652 926 ft 152 kts 339°